Plattsmouth, NE

11:02 AM CST on February 27, 2017 (GMT -0600)
Plattsmouth Municipal

Weather History for KPMV - January, 2014

Change the Weather History Date:

Sunday, January 19, 2014

  Actual Average (KOFF) Record (KOFF)
Temperature  
Mean Temperature 41 °F -  
Max Temperature 65 °F 31 °F 66 °F (2014)
Min Temperature 17 °F 14 °F -10 °F (2008)
Degree Days  
Heating Degree Days 24    
Moisture  
Dew Point 17 °F    
Average Humidity 44    
Maximum Humidity 84    
Minimum Humidity 13    
Precipitation  
Precipitation 0.00 in - - ()
Sea Level Pressure  
Sea Level Pressure 29.82 in    
Wind  
Wind Speed 11 mph (WSW)    
Max Wind Speed 20 mph    
Max Gust Speed 24 mph    
Visibility 10 miles    
Events      
Averages and records for this station are not official NWS values.
T = Trace of Precipitation, MM = Missing Value Source: NWS Daily Summary

Daily Weather History Graph

Daily Weather History Graph

Search for Another Location

Airport or City:

Trip Planner

Search our weather history database for the weather conditions in past years. The results will help you decide how hot, cold, wet, or windy it might be!

Date:

Astronomy

Jan. 19, 2014 Rise Set
Actual Time 7:44 AM CST 5:25 PM CST
Civil Twilight 7:14 AM CST 5:55 PM CST
Nautical Twilight 6:40 AM CST 6:28 PM CST
Astronomical Twilight 6:07 AM CST 7:01 PM CST
Moon 9:06 PM CST (1/19) 9:13 AM CST (1/19)
Length of Visible Light 10h 40m
Length of Day
9h 40m
Waning Gibbous, 89% of the Moon is Illuminated
Jan 19
Waning Gibbous
Jan 23
Last Quarter
Jan 30
New
Feb 6
First Quarter
Feb 14
Full

Hourly Weather History & Observations

Time (CST) Temp. Windchill Dew Point Humidity Pressure Visibility Wind Dir Wind Speed Gust Speed Precip Events Conditions
12:15 AM 20.3 °F 11.5 °F 14.9 °F 80% 30.03 in 10.0 mi SSW 6.9 mph - N/A   Clear
12:35 AM 19.0 °F 12.3 °F 13.8 °F 80% 30.02 in 10.0 mi SSE 4.6 mph - N/A   Clear
12:55 AM 17.2 °F 7.8 °F 13.1 °F 84% 30.00 in 10.0 mi South 6.9 mph - N/A   Clear
1:15 AM 18.1 °F 11.3 °F 13.6 °F 83% 29.99 in 10.0 mi South 4.6 mph - N/A   Clear
1:35 AM 21.4 °F 11.9 °F 16.7 °F 82% 29.99 in 10.0 mi SSW 8.1 mph - N/A   Clear
1:55 AM 21.4 °F 12.8 °F 16.5 °F 82% 29.99 in 10.0 mi SSW 6.9 mph - N/A   Clear
2:15 AM 22.8 °F 14.5 °F 17.6 °F 80% 29.98 in 10.0 mi SSW 6.9 mph - N/A   Clear
2:35 AM 23.4 °F 12.2 °F 18.1 °F 80% 29.97 in 10.0 mi SSW 11.5 mph - N/A   Clear
2:55 AM 23.9 °F 10.8 °F 18.7 °F 80% 29.94 in 10.0 mi SSW 16.1 mph - N/A   Clear
3:15 AM 23.9 °F 11.2 °F 18.5 °F 80% 29.93 in 10.0 mi SW 15.0 mph - N/A   Clear
3:35 AM 24.6 °F 11.7 °F 19.4 °F 81% 29.93 in 10.0 mi SW 16.1 mph 20.7 mph N/A   Clear
3:55 AM 26.6 °F 15.2 °F 20.3 °F 77% 29.91 in 10.0 mi SSW 13.8 mph - N/A   Clear
4:15 AM 27.3 °F 15.2 °F 20.3 °F 75% 29.91 in 10.0 mi SW 16.1 mph 21.9 mph N/A   Clear
4:35 AM 28.0 °F 14.9 °F 20.8 °F 74% 29.90 in 10.0 mi SW 19.6 mph 23.0 mph N/A   Clear
4:55 AM 28.8 °F 17.0 °F 20.8 °F 72% 29.89 in 10.0 mi SW 16.1 mph 21.9 mph N/A   Clear
5:15 AM 28.4 °F 19.1 °F 20.3 °F 72% 29.89 in 10.0 mi SW 10.4 mph - N/A   Clear
5:35 AM 27.5 °F 20.2 °F 20.1 °F 74% 29.87 in 10.0 mi SW 6.9 mph - N/A   Clear
5:55 AM 30.2 °F 20.2 °F 21.0 °F 69% 29.85 in 10.0 mi SW 12.7 mph 19.6 mph N/A   Clear
6:15 AM 30.9 °F 22.2 °F 20.3 °F 65% 29.85 in 10.0 mi WSW 10.4 mph - N/A   Clear
6:35 AM 32.2 °F 21.8 °F 19.9 °F 61% 29.84 in 10.0 mi SW 15.0 mph 23.0 mph N/A   Clear
6:55 AM 32.9 °F 21.6 °F 19.4 °F 58% 29.84 in 10.0 mi WSW 18.4 mph - N/A   Clear
7:15 AM 32.4 °F 21.3 °F 19.2 °F 58% 29.84 in 10.0 mi SW 17.3 mph 24.2 mph N/A   Clear
7:35 AM 32.0 °F 21.6 °F 19.0 °F 59% 29.82 in 10.0 mi WSW 15.0 mph - N/A   Clear
7:55 AM 32.0 °F 21.6 °F 18.9 °F 58% 29.82 in 10.0 mi WSW 15.0 mph - N/A   Clear
8:15 AM 32.5 °F 22.3 °F 18.9 °F 57% 29.82 in 10.0 mi WSW 15.0 mph 18.4 mph N/A   Clear
8:35 AM 34.5 °F 24.1 °F 19.4 °F 54% 29.81 in 10.0 mi SW 17.3 mph 21.9 mph N/A   Clear
8:55 AM 35.8 °F 26.1 °F 19.4 °F 51% 29.81 in 10.0 mi WSW 16.1 mph 20.7 mph N/A   Clear
9:15 AM 37.4 °F 28.2 °F 19.4 °F 48% 29.80 in 10.0 mi WSW 16.1 mph - N/A   Clear
9:35 AM 39.2 °F 30.2 °F 19.4 °F 45% 29.81 in 10.0 mi WSW 17.3 mph - N/A   Clear
9:55 AM 41.0 °F 33.1 °F 19.6 °F 42% 29.81 in 10.0 mi West 15.0 mph 21.9 mph N/A   Clear
10:15 AM 42.4 °F 34.7 °F 19.0 °F 39% 29.80 in 10.0 mi West 16.1 mph 21.9 mph N/A   Clear
10:35 AM 44.6 °F 38.8 °F 19.0 °F 36% 29.81 in 10.0 mi West 11.5 mph 17.3 mph N/A   Clear
10:55 AM 46.6 °F - 18.3 °F 32% 29.81 in 10.0 mi West 12.7 mph - N/A   Clear
11:15 AM 48.7 °F - 18.5 °F 30% 29.80 in 10.0 mi West 12.7 mph - N/A   Clear
11:35 AM 50.9 °F - 18.5 °F 28% 29.78 in 10.0 mi WSW 11.5 mph - N/A   Clear
11:55 AM 52.3 °F - 18.3 °F 26% 29.77 in 10.0 mi SW 10.4 mph 16.1 mph N/A   Clear
12:15 PM 54.1 °F - 18.3 °F 25% 29.76 in 10.0 mi WSW 10.4 mph - N/A   Clear
12:35 PM 55.6 °F - 18.1 °F 23% 29.75 in 10.0 mi WSW 12.7 mph - N/A   Clear
12:55 PM 58.1 °F - 17.8 °F 21% 29.73 in 10.0 mi SW 13.8 mph - N/A   Clear
1:15 PM 59.5 °F - 17.6 °F 20% 29.72 in 10.0 mi WSW 13.8 mph - N/A   Clear
1:35 PM 60.6 °F - 17.1 °F 18% 29.71 in 10.0 mi WSW 15.0 mph - N/A   Clear
1:55 PM 61.9 °F - 16.7 °F 17% 29.70 in 10.0 mi SW 13.8 mph 18.4 mph N/A   Clear
2:15 PM 63.0 °F - 15.8 °F 16% 29.69 in 10.0 mi WSW 13.8 mph 20.7 mph N/A   Clear
2:35 PM 63.5 °F - 15.6 °F 16% 29.69 in 10.0 mi WSW 16.1 mph 23.0 mph N/A   Clear
2:55 PM 64.4 °F - 15.1 °F 15% 29.69 in 10.0 mi WSW 17.3 mph 24.2 mph N/A   Clear
3:15 PM 64.9 °F - 14.4 °F 14% 29.68 in 10.0 mi WSW 18.4 mph 23.0 mph N/A   Clear
3:35 PM 65.3 °F - 14.7 °F 14% 29.69 in 10.0 mi WSW 17.3 mph 23.0 mph N/A   Clear
3:55 PM 65.5 °F - 14.2 °F 14% 29.68 in 10.0 mi WSW 13.8 mph 19.6 mph N/A   Clear
4:15 PM 65.3 °F - 13.1 °F 13% 29.68 in 10.0 mi WSW 11.5 mph - N/A   Clear
4:35 PM 64.0 °F - 13.6 °F 14% 29.69 in 10.0 mi West 11.5 mph - N/A   Clear
4:55 PM 61.9 °F - 13.8 °F 15% 29.70 in 10.0 mi West 9.2 mph - N/A   Clear
5:15 PM 59.0 °F - 14.5 °F 18% 29.71 in 10.0 mi WSW 8.1 mph - N/A   Clear
5:35 PM 56.3 °F - 14.7 °F 19% 29.72 in 10.0 mi WSW 9.2 mph - N/A   Clear
5:55 PM 54.5 °F - 12.9 °F 19% 29.72 in 10.0 mi West 11.5 mph - N/A   Clear
6:15 PM 53.4 °F - 11.5 °F 19% 29.74 in 10.0 mi West 10.4 mph - N/A   Clear
6:55 PM 53.4 °F - 11.3 °F 19% 29.76 in 10.0 mi NW 10.4 mph - N/A   Clear
7:15 PM 51.1 °F - 12.0 °F 21% 29.78 in 10.0 mi NW 10.4 mph - N/A   Clear
7:35 PM 48.9 °F - 14.0 °F 25% 29.79 in 10.0 mi NW 12.7 mph - N/A   Clear
7:55 PM 48.0 °F - 15.3 °F 27% 29.80 in 10.0 mi WNW 8.1 mph - N/A   Clear
8:15 PM 46.0 °F 41.9 °F 15.6 °F 30% 29.80 in 10.0 mi NW 8.1 mph - N/A   Clear
8:35 PM 44.4 °F 39.5 °F 16.3 °F 32% 29.81 in 10.0 mi NW 9.2 mph - N/A   Clear
8:55 PM 44.6 °F 39.7 °F 16.9 °F 33% 29.82 in 10.0 mi NW 9.2 mph - N/A   Clear
9:15 PM 45.5 °F 40.3 °F 17.6 °F 33% 29.82 in 10.0 mi NW 10.4 mph - N/A   Clear
9:35 PM 43.2 °F 37.9 °F 18.1 °F 37% 29.82 in 10.0 mi NW 9.2 mph - N/A   Clear
9:55 PM 42.8 °F 37.5 °F 19.2 °F 39% 29.84 in 10.0 mi NW 9.2 mph - N/A   Clear
10:15 PM 42.8 °F 37.0 °F 20.7 °F 41% 29.84 in 10.0 mi NNW 10.4 mph - N/A   Clear
10:35 PM 39.6 °F 33.5 °F 20.7 °F 47% 29.84 in 10.0 mi NW 9.2 mph - N/A   Clear
10:55 PM 38.8 °F 32.1 °F 20.5 °F 48% 29.85 in 10.0 mi NW 10.4 mph - N/A   Clear
11:15 PM 42.1 °F 36.6 °F 21.7 °F 44% 29.84 in 10.0 mi NNW 9.2 mph - N/A   Clear
11:35 PM 39.9 °F 35.1 °F 21.2 °F 47% 29.84 in 10.0 mi NNW 6.9 mph - N/A   Clear
11:55 PM 38.3 °F 33.2 °F 21.7 °F 51% 29.84 in 10.0 mi NNW 6.9 mph - N/A   Clear